Flight Track Log - Related Links

Times and Time Zones

All times are in EDT time to prevent confusion due to time zone crossing. See the N510SR flight status page for this flight to view local times or setup timezone preferences in your user account.

Time Position Orientation Groundspeed Altitude Reporting Facility
EDT Latitude Longitude Course Direction KTS MPH feet Rate Location/Type
Sun 19:05:58 40.8167 -74.1500 242° Southwest 253 291 1,700  Level New York TRACON
Sun 19:06:58 40.8167 -74.2500 270° West 265 305 4,000 1,200 Climbing New York TRACON
Sun 19:07:58 40.7833 -74.3333 242° Southwest 262 302 4,100 50 Climbing New York TRACON
Sun 19:08:58 40.7500 -74.4167 242° Southwest 267 307 4,100  Level New York TRACON
Sun 19:09:58 40.7333 -74.5167 258° West 264 304 4,100  Level New York TRACON
Sun 19:11:00 40.7054 -74.3988 242° Southwest  Level FlightAware Approximate
Sun 19:11:00 40.6958 -74.5656 225° Southwest  Level FlightAware Approximate
Sun 19:18:00 40.5523 -74.9779 266° West  Level FlightAware Approximate
Sun 19:19:00 40.5500 -75.0450 270° West  Level FlightAware Approximate
Sun 19:20:00 40.5423 -75.1114 261° West  Level FlightAware Approximate
Sun 19:21:00 40.5340 -75.1777 261° West  Level FlightAware Approximate
Sun 19:22:00 40.5420 -75.2438 281° West  Level FlightAware Approximate
Sun 19:23:00 40.5500 -75.3101 270° West  Level FlightAware Approximate
Sun 19:24:00 40.5500 -75.3773 270° West  Level FlightAware Approximate
Sun 19:25:00 40.5528 -75.4443 278° West  Level FlightAware Approximate
Sun 19:26:00 40.5595 -75.5109 278° West  Level FlightAware Approximate
Sun 19:27:00 40.5661 -75.5776 277° West  Level FlightAware Approximate
Sun 19:28:00 40.5667 -75.6448 270° West  Level FlightAware Approximate
Sun 19:29:00 40.5787 -75.6593 57° Northeast  Level FlightAware Approximate
Sun 19:30:00 40.5971 -75.6029 37° Northeast  Level FlightAware Approximate
Sun 19:31:00 40.6121 -75.5396 75° East  Level FlightAware Approximate
Sun 19:32:00 40.6321 -75.4781 62° Northeast  Level FlightAware Approximate

Login

Don't have an account? Register now (free) for customized features, flight alerts, and more!